EW9598 Weather Reports


time (UTC)temp
C
wind
direction
speed
KPH
gust
KPH
rain 1hr
cm
rain 24hr
cm
rain mn
cm
humidity
%
barometer
mb
20260504235129 26 322 4.8 8.0 0.00 0.00 0.00 52 1001.5
20260504234629 26 89 1.6 16.1 0.00 0.00 0.00 50 1001.8
20260504234114 26 15 9.7 16.1 0.00 0.00 0.00 50 1001.8
20260504233618 26 35 3.2 12.9 0.00 0.00 0.00 52 1001.8
20260504233114 26 113 1.6 12.9 0.00 0.00 0.00 49 1001.8
20260504232614 26 151 0.0 16.1 0.00 0.00 0.00 50 1001.8
20260504232113 26 90 0.0 8.0 0.00 0.00 0.00 50 1002.1
20260504231602 26 158 0.0 8.0 0.00 0.00 0.00 51 1001.8
20260504231109 26 306 1.6 8.0 0.00 0.00 0.00 50 1002.1
20260504230532 26 88 0.0 8.0 0.00 0.00 0.00 49 1002.1
20260504230035 26 346 1.6 8.0 0.00 0.00 0.00 50 1002.1
20260504225511 27 50 0.0 16.1 0.00 0.00 0.00 50 1002.1
20260504225010 27 350 9.7 16.1 0.00 0.00 0.00 48 1002.1
20260504224500 27 353 3.2 12.9 0.00 0.00 0.00 49 1002.1
20260504223954 27 175 0.0 12.9 0.00 0.00 0.00 50 1002.1
20260504223428 27 136 0.0 16.1 0.00 0.00 0.00 49 1002.1
20260504222933 27 328 4.8 16.1 0.00 0.00 0.00 48 1002.1
20260504222418 27 345 0.0 16.1 0.00 0.00 0.00 49 1002.1
20260504221911 27 193 0.0 16.1 0.00 0.00 0.00 50 1002.1
20260504221357 27 95 1.6 16.1 0.00 0.00 0.00 49 1002.1
20260504220846 27 126 0.0 12.9 0.00 0.00 0.00 50 1002.1
20260504220348 27 144 1.6 12.9 0.00 0.00 0.00 49 1001.8
20260504215840 27 333 6.4 20.9 0.00 0.00 0.00 48 1001.8
20260504215607 27 4 12.9 20.9 0.00 0.00 0.00 48 1001.8
20260504214835 27 101 0.0 12.9 0.00 0.00 0.00 49 1001.8
20260504214340 27 165 0.0 16.1 0.00 0.00 0.00 49 1002.1
20260504213833 27 4 4.8 16.1 0.00 0.00 0.00 48 1001.8
20260504213321 27 30 9.7 16.1 0.00 0.00 0.00 48 1001.8
20260504212802 27 14 0.0 16.1 0.00 0.00 0.00 49 1001.8
20260504212258 27 51 1.6 16.1 0.00 0.00 0.00 48 1001.5
20260504211732 28 52 3.2 8.0 0.00 0.00 0.00 46 1001.5
20260504211237 28 122 0.0 16.1 0.00 0.00 0.00 50 1001.5
20260504210711 28 318 4.8 27.4 0.00 0.00 0.00 48 1001.8
20260504210210 28 323 9.7 27.4 0.00 0.00 0.00 47 1001.8
20260504205704 27 164 0.0 12.9 0.00 0.00 0.00 50 1001.8
20260504205410 26 129 0.0 12.9 0.00 0.00 0.00 51 1002.1
20260504204629 26 142 0.0 12.9 0.00 0.00 0.00 49 1001.8
20260504204134 26 335 0.0 8.0 0.00 0.00 0.00 50 1002.1
20260504203618 27 111 4.8 8.0 0.00 0.00 0.00 49 1001.8
20260504203110 27 11 0.0 8.0 0.00 0.00 0.00 49 1002.1
20260504203047 27 346 1.6 8.0 0.00 0.00 0.00 51 1002.1
20260504202048 26 39 0.0 8.0 0.00 0.00 0.00 51 1002.5
20260504201551 25 121 0.0 12.9 0.00 0.00 0.00 54 1002.5
20260504201037 25 105 0.0 16.1 0.00 0.00 0.00 54 1002.1
20260504200539 24 31 0.0 16.1 0.00 0.00 0.00 54 1002.1
20260504200044 24 334 0.0 16.1 0.00 0.00 0.00 55 1003.6
20260504195519 25 135 1.6 16.1 0.00 0.00 0.00 57 1003.9
20260504195019 25 332 4.8 12.9 0.00 0.00 0.00 49 1003.6
20260504194518 26 104 0.0 12.9 0.00 0.00 0.00 49 1003.9
20260504194003 26 335 0.0 8.0 0.00 0.00 0.00 47 1003.6
20260504193503 26 145 0.0 8.0 0.00 0.00 0.00 48 1003.2
20260504193004 26 113 0.0 16.1 0.00 0.00 0.00 48 1003.2
20260504192503 27 24 0.0 12.9 0.00 0.00 0.00 45 1003.2
20260504192004 27 328 0.0 12.9 0.00 0.00 0.00 46 1003.2
20260504191506 28 167 3.2 12.9 0.00 0.00 0.00 44 1003.6
20260504190941 29 154 3.2 12.9 0.00 0.00 0.00 46 1003.2
20260504190441 28 312 1.6 24.1 0.00 0.00 0.00 47 1003.2
20260504190210 28 319 3.2 20.9 0.00 0.00 0.00 47 1003.2
20260504185917 28 89 3.2 12.9 0.00 0.00 0.00 44 1003.2
20260504184934 28 349 1.6 16.1 0.00 0.00 0.00 49 1003.2
20260504184433 28 137 0.0 16.1 0.00 0.00 0.00 48 1003.6
20260504183928 28 16 0.0 16.1 0.00 0.00 0.00 46 1003.2
20260504183428 28 2 3.2 12.9 0.00 0.00 0.00 48 1003.6
20260504182919 28 37 3.2 8.0 0.00 0.00 0.00 46 1003.2
20260504182414 28 334 6.4 16.1 0.00 0.00 0.00 46 1003.6
20260504181914 28 282 3.2 16.1 0.00 0.00 0.00 45 1003.6
20260504181406 28 181 0.0 12.9 0.00 0.00 0.00 46 1003.2
20260504181150 28 83 0.0 16.1 0.00 0.00 0.00 48 1003.6
20260504180355 28 6 0.0 16.1 0.00 0.00 0.00 48 1003.6
20260504180118 28 6 0.0 8.0 0.00 0.00 0.00 46 1003.6
20260504175339 28 109 0.0 12.9 0.00 0.00 0.00 52 1003.6
20260504175116 27 357 8.0 16.1 0.00 0.00 0.00 50 1003.9
20260504174326 27 9 0.0 16.1 0.00 0.00 0.00 52 1003.9
20260504173824 27 332 4.8 8.0 0.00 0.00 0.00 52 1003.9
20260504173310 27 38 0.0 8.0 0.00 0.00 0.00 53 1003.9
20260504172803 27 4 0.0 20.9 0.00 0.00 0.00 52 1004.3
20260504172307 26 219 0.0 20.9 0.00 0.00 0.00 54 1004.3
20260504171802 26 3 1.6 12.9 0.00 0.00 0.00 53 1004.3
20260504171255 27 337 3.2 12.9 0.00 0.00 0.00 51 1004.6
20260504170741 27 210 0.0 8.0 0.00 0.00 0.00 53 1004.6
20260504170244 26 45 0.0 8.0 0.00 0.00 0.00 54 1004.6
20260504150931 24 96 0.0 3.2 0.00 0.00 0.00 55 1006.0
20260504150700 24 128 0.0 8.0 0.00 0.00 0.00 56 1006.0
20260504141330 24 8 0.0 3.2 0.00 0.00 0.00 59 1006.0
20260504140814 24 139 0.0 3.2 0.00 0.00 0.00 61 1006.0
20260504140314 24 357 3.2 3.2 0.00 0.00 0.00 58 1006.0
20260504130729 21 197 0.0 3.2 0.00 0.00 0.00 71 1006.6
20260504130242 20 210 0.0 3.2 0.00 0.00 0.00 70 1007.0
20260504120110 13 99 0.0 0.0 0.00 0.00 0.00 95 1007.7
20260504110434 12 89 0.0 0.0 0.00 0.00 0.00 95 1007.0
20260504100202 13 109 0.0 0.0 0.00 0.00 0.00 89 1007.0
20260504081524 15 112 0.0 0.0 0.00 0.00 0.00 77 1006.3
20260504081229 15 278 0.0 0.0 0.00 0.00 0.00 77 1006.3
20260504080502 16 3 0.0 0.0 0.00 0.00 0.00 76 1006.6
20260504050200 16 19 0.0 3.2 0.00 0.00 0.00 71 1007.3
20260504045635 16 222 0.0 3.2 0.00 0.00 0.00 71 1007.7
20260504045129 16 67 0.0 0.0 0.00 0.00 0.00 71 1007.7
20260504044624 16 113 0.0 0.0 0.00 0.00 0.00 71 1007.7
20260504044114 17 147 0.0 3.2 0.00 0.00 0.00 70 1007.7
20260504043613 17 58 0.0 3.2 0.00 0.00 0.00 69 1007.7
20260504043113 17 75 0.0 3.2 0.00 0.00 0.00 70 1007.7
20260504042836 17 165 0.0 3.2 0.00 0.00 0.00 70 1008.0
20260504042319 17 139 0.0 3.2 0.00 0.00 0.00 69 1008.0
20260504041606 17 73 0.0 0.0 0.00 0.00 0.00 69 1008.0
20260504041321 17 35 0.0 8.0 0.00 0.00 0.00 68 1008.0
20260504040605 17 9 0.0 8.0 0.00 0.00 0.00 69 1008.3
20260504040053 17 111 0.0 0.0 0.00 0.00 0.00 69 1008.3
20260504035807 17 135 0.0 3.2 0.00 0.00 0.00 69 1008.0
20260504035035 17 126 0.0 3.2 0.00 0.00 0.00 67 1008.3
20260504034529 17 67 0.0 0.0 0.00 0.00 0.00 68 1008.3
20260504034029 17 29 0.0 0.0 0.00 0.00 0.00 68 1008.3
20260504033528 17 223 0.0 3.2 0.00 0.00 0.00 68 1008.3
20260504033244 17 352 0.0 0.0 0.00 0.00 0.00 67 1008.7
20260504032727 17 118 0.0 0.0 0.00 0.00 0.00 67 1008.3
20260504031954 17 114 0.0 3.2 0.00 0.00 0.00 66 1008.3
20260504031714 17 47 0.0 3.2 0.00 0.00 0.00 67 1008.3
20260504030933 17 4 0.0 0.0 0.00 0.00 0.00 66 1008.3
20260504030436 17 127 0.0 3.2 0.00 0.00 0.00 66 1008.3
20260504025928 17 79 0.0 3.2 0.00 0.00 0.00 65 1008.3
20260504025428 17 19 0.0 0.0 0.00 0.00 0.00 64 1008.3
20260504024928 17 98 0.0 3.2 0.00 0.00 0.00 65 1008.3
20260504024412 17 136 0.0 3.2 0.00 0.00 0.00 64 1008.3
20260504023913 17 164 0.0 3.2 0.00 0.00 0.00 64 1008.3
20260504023358 18 4 0.0 3.2 0.00 0.00 0.00 63 1008.3
20260504022853 17 358 0.0 3.2 0.00 0.00 0.00 62 1008.3
20260504022336 17 135 0.0 0.0 0.00 0.00 0.00 63 1008.0
20260504021832 17 156 0.0 3.2 0.00 0.00 0.00 63 1008.0
20260504021317 18 209 0.0 3.2 0.00 0.00 0.00 62 1008.0
20260504020811 18 96 0.0 0.0 0.00 0.00 0.00 62 1008.0
20260504020310 18 129 0.0 0.0 0.00 0.00 0.00 62 1008.0
20260504015755 18 27 0.0 0.0 0.00 0.00 0.00 62 1008.0
20260504015229 18 126 0.0 0.0 0.00 0.00 0.00 61 1008.0
20260504014959 18 108 0.0 0.0 0.00 0.00 0.00 60 1008.0
20260504014229 18 123 0.0 0.0 0.00 0.00 0.00 60 1008.0
20260504013732 18 159 0.0 0.0 0.00 0.00 0.00 60 1008.0
20260504013228 18 90 0.0 0.0 0.00 0.00 0.00 60 1007.7
20260504012712 18 93 0.0 0.0 0.00 0.00 0.00 58 1008.0
20260504012217 19 90 0.0 0.0 0.00 0.00 0.00 57 1008.0
20260504011657 19 111 0.0 0.0 0.00 0.00 0.00 55 1008.0
20260504011156 20 157 0.0 0.0 0.00 0.00 0.00 55 1007.7
20260504010916 20 85 0.0 0.0 0.00 0.00 0.00 56 1007.7
20260504010416 20 91 0.0 0.0 0.00 0.00 0.00 54 1008.0
20260504005648 20 110 0.0 0.0 0.00 0.00 0.00 53 1008.0
20260504005133 21 75 0.0 8.0 0.00 0.00 0.00 52 1007.7
20260504004627 21 312 0.0 8.0 0.00 0.00 0.00 50 1007.7
20260504004126 21 83 0.0 0.0 0.00 0.00 0.00 51 1007.7
20260504003622 21 133 0.0 0.0 0.00 0.00 0.00 51 1007.7
20260504003108 22 121 0.0 3.2 0.00 0.00 0.00 49 1007.7
20260504002829 22 58 0.0 3.2 0.00 0.00 0.00 48 1007.7
20260504002106 22 335 0.0 8.0 0.00 0.00 0.00 47 1007.7
20260504001829 22 55 0.0 8.0 0.00 0.00 0.00 46 1008.0
20260504001041 22 120 0.0 8.0 0.00 0.00 0.00 46 1007.7
20260504000819 23 21 0.0 8.0 0.00 0.00 0.00 46 1007.7
20260504000029 23 103 0.0 0.0 0.00 0.00 0.00 45 1007.7
20260503235534 23 105 0.0 3.2 0.00 0.00 0.00 45 1008.0